Location: Unspecified
(48.2082°N, 0.0000°E)
Time: 08:31:22
(UTC+00:00)

Transit 4A - Pass Details

Date: 19 June 2019
Orbit: 862 x 982 km, 66.8° (Epoch: 16 July)

Event Time Altitude Azimuth Distance (km) Brightness Sun altitude
Rises 13:57:02 0° 314° (NW) 3,692 11.1 56.3°
Reaches altitude 10° 14:00:53 10° 336° (NNW) 2,747 10.4 55.7°
Maximum altitude 14:04:33 15° 11° (N) 2,368 10.0 55.3°
Drops below altitude 10° 14:08:12 10° 46° (NE) 2,734 10.1 54.7°
Sets 14:12:01 0° 68° (ENE) 3,666 10.7 54.2°
